Location: ???? ?????????
(44.3677°N, 135.2344°E)
Time: 11:24:02
(UTC+00:00)

Cosmos 1758 - Pass Details

Date: 19 May 2025
Orbit: 491 x 512 km, 82.5° (Epoch: 14 June)

Event Time Altitude Azimuth Distance (km) Brightness Sun altitude
Rises 15:25:02 0° 357° (N) 2,640 8.1 -25.4°
Reaches altitude 10° 15:27:14 10° 3° (N) 1,747 6.9 -25.3°
Enters shadow 15:30:27 43° 54° (NE) 736 4.2 -25.2°
